This demonstration page uses our WeatherBlox Daily Observations layout. Learn more.

38.89511, -77.03637

Hourly Observations for January 8, 2015

Temp ( °F °C ) Dew Point ( °F °C ) Humidity (%) Winds ( mph kmh ) Pressure ( in mb ) Visibility ( mi km ) Precip ( " mm )
12:52 am 00:52 Mostly Clear 14 -10 -8 -22 37 37 NW 13 20 30.5 1033 10 16.09344 0 0
1:52 am 01:52 Clear 14 -10 -8 -22 37 37 W 7 11 30.53 1034 10 16.09344 0 0
2:52 am 02:52 Clear 12 -11 -8 -22 40 40 WNW 8 13 30.53 1034 10 16.09344 0 0
3:52 am 03:52 Clear 12 -11 -8 -22 40 40 WNW 13 20 30.53 1034 10 16.09344 0 0
4:52 am 04:52 Clear 12 -11 -8 -22 40 40 WNW 9 15 30.56 1035 10 16.09344 0 0
5:52 am 05:52 Clear 12 -11 -8 -22 40 40 W 8 13 30.56 1035 10 16.09344 0 0
6:52 am 06:52 Clear 12 -11 -8 -22 40 40 WNW 7 11 30.59 1036 10 16.09344 0 0
7:52 am 07:52 Sunny 12 -11 -8 -22 40 40 W 9 15 30.59 1036 10 16.09344 0 0
8:52 am 08:52 Sunny 16 -9 -8 -22 34 34 W 9 15 30.62 1037 10 16.09344 0 0
9:52 am 09:52 Sunny 18 -8 -6 -21 35 35 WNW 10 17 30.62 1037 10 16.09344 0 0
10:52 am 10:52 Sunny 18 -8 -6 -21 35 35 W 12 19 30.59 1036 10 16.09344 0 0
11:52 am 11:52 Sunny 19 -7 -6 -21 32 32 WNW 12 19 30.56 1035 10 16.09344 0 0
12:52 pm 12:52 Mostly Sunny 21 -6 -6 -21 30 30 WNW 7 11 30.53 1034 10 16.09344 0 0
1:52 pm 13:52 Partly Cloudy 21 -6 -6 -21 30 30 WNW 8 13 30.5 1033 10 16.09344 0 0
2:52 pm 14:52 Partly Cloudy 25 -4 -4 -20 28 28 W 10 17 30.48 1032 10 16.09344 0 0
3:52 pm 15:52 Partly Cloudy 25 -4 -4 -20 28 28 W 7 11 30.45 1031 10 16.09344 0 0
4:52 pm 16:52 Mostly Cloudy 23 -5 0 -18 36 36 S 9 15 30.42 1030 10 16.09344 0 0
5:52 pm 17:52 Mostly Cloudy 23 -5 -2 -19 33 33 SSW 10 17 30.42 1030 10 16.09344 0 0
6:52 pm 18:52 Mostly Cloudy 25 -4 0 -18 33 33 S 13 20 30.39 1029 10 16.09344 0 0
7:52 pm 19:52 Cloudy 25 -4 1 -17 36 36 S 16 26 30.36 1028 10 16.09344 0 0
8:52 pm 20:52 Cloudy 25 -4 1 -17 36 36 S 17 28 30.33 1027 10 16.09344 0 0
9:52 pm 21:52 Cloudy 25 -4 0 -18 33 33 S 18 30 30.3 1026 10 16.09344 0 0
10:52 pm 22:52 Cloudy 27 -3 1 -17 33 33 SSW 22 35 30.27 1025 10 16.09344 0 0
11:52 pm 23:52 Cloudy 27 -3 1 -17 33 33 SSW 18 30 30.21 1023 10 16.09344 0 0

Powered by AerisWeather